Weather History for New York, NY

Change the Weather History Date:

Wednesday, November 21, 2012

  Actual Average Record
Temperature  
Mean Temperature 49 °F 46 °F  
Max Temperature 54 °F 53 °F 69 °F (1991)
Min Temperature 43 °F 40 °F 20 °F (1987)
Degree Days  
Heating Degree Days 16 19  
Month to date heating degree days 393 323  
Since 1 July heating degree days 575 595  
Cooling Degree Days 0 0  
Month to date cooling degree days 0 0  
Year to date cooling degree days 1511 1213  
Moisture  
Dew Point 33 °F    
Average Humidity 59    
Maximum Humidity 76    
Minimum Humidity 41    
Precipitation  
Precipitation 0.00 in 0.11 in 0.84 in (1975)
Month to date precipitation 0.89 2.33  
Year to date precipitation 31.95 40.09  
Snow  
Snow 0.00 in 0.00 in - ()
Month to date snowfall 1.1 0.1  
Since 1 July snowfall 1.1 0.1  
Snow Depth 0.00 in    
Sea Level Pressure  
Sea Level Pressure 30.19 in    
Wind  
Wind Speed 7 mph (NE)    
Max Wind Speed 14 mph    
Max Gust Speed 17 mph    
Visibility 10 miles    
Events      
T = Trace of Precipitation, MM = Missing Value Source: NWS Daily Summary

Daily Weather History Graph

Daily Weather History Graph

Search for Another Location

Airport:

Trip Planner

Search our weather history database for the weather conditions in past years. The results will help you decide how hot, cold, wet, or windy it might be!

Date:

Astronomy

Nov. 21, 2012 Rise Set
Actual Time 6:49 AM EST 4:32 PM EST
Civil Twilight 6:20 AM EST 5:02 PM EST
Nautical Twilight 5:46 AM EST 5:36 PM EST
Astronomical Twilight 5:13 AM EST 6:08 PM EST
Moon 12:50 PM EST (11/21) 12:04 AM EST (11/21)
Length of Visible Light 10h 42m
Length of Day
9h 42m
First Quarter, 61% of the Moon is Illuminated
Nov 21
First Quarter
Nov 28
Full
Dec 6
Last Quarter
Dec 13
New
Dec 20
First Quarter

Hourly Weather History & Observations

Time (EST) Temp. Windchill Dew Point Humidity Pressure Visibility Wind Dir Wind Speed Gust Speed Precip Events Conditions
12:51 AM 46.0 °F 44.8 °F 39.0 °F 76% 30.14 in 10.0 mi North 3.5 mph - N/A   Overcast
1:51 AM 46.0 °F 43.1 °F 33.1 °F 61% 30.15 in 10.0 mi NNE 5.8 mph - N/A   Mostly Cloudy
2:51 AM 45.0 °F 41.8 °F 32.0 °F 60% 30.15 in 10.0 mi NNE 5.8 mph - N/A   Overcast
3:51 AM 44.1 °F 40.1 °F 34.0 °F 68% 30.15 in 10.0 mi NNE 6.9 mph - N/A   Mostly Cloudy
4:51 AM 43.0 °F 39.5 °F 34.0 °F 71% 30.17 in 10.0 mi North 5.8 mph - N/A   Scattered Clouds
5:51 AM 43.0 °F 40.3 °F 34.0 °F 71% 30.19 in 10.0 mi North 4.6 mph - N/A   Scattered Clouds
6:51 AM 43.0 °F 39.5 °F 30.9 °F 62% 30.19 in 10.0 mi NNE 5.8 mph - N/A   Scattered Clouds
7:51 AM 44.1 °F 39.5 °F 30.9 °F 60% 30.21 in 10.0 mi North 8.1 mph - N/A   Scattered Clouds
8:51 AM 45.0 °F 40.6 °F 30.9 °F 58% 30.21 in 10.0 mi NE 8.1 mph - N/A   Scattered Clouds
9:51 AM 46.9 °F - 32.0 °F 56% 30.21 in 10.0 mi NE 5.8 mph - N/A   Partly Cloudy
10:51 AM 50.0 °F - 35.1 °F 57% 30.21 in 10.0 mi NE 10.4 mph - N/A   Partly Cloudy
11:51 AM 51.8 °F - 35.6 °F 54% 30.20 in 10.0 mi ENE 11.5 mph - N/A   Partly Cloudy
12:51 PM 52.0 °F - 34.0 °F 50% 30.19 in 10.0 mi ENE 8.1 mph - N/A   Partly Cloudy
1:51 PM 52.0 °F - 30.0 °F 43% 30.17 in 10.0 mi ENE 5.8 mph - N/A   Partly Cloudy
2:51 PM 53.1 °F - 30.0 °F 41% 30.17 in 10.0 mi NE 4.6 mph - N/A   Scattered Clouds
3:51 PM 52.0 °F - 28.9 °F 41% 30.17 in 10.0 mi ENE 6.9 mph - N/A   Scattered Clouds
4:51 PM 52.0 °F - 30.0 °F 43% 30.19 in 10.0 mi ENE 9.2 mph - N/A   Scattered Clouds
5:51 PM 50.0 °F - 35.1 °F 57% 30.20 in 10.0 mi ENE 6.9 mph - N/A   Partly Cloudy
6:51 PM 48.0 °F - 39.0 °F 71% 30.22 in 10.0 mi NNE 4.6 mph - N/A   Partly Cloudy
7:51 PM 48.9 °F - 35.1 °F 59% 30.23 in 10.0 mi NNE 5.8 mph - N/A   Partly Cloudy
8:51 PM 48.9 °F - 35.1 °F 59% 30.23 in 10.0 mi NE 5.8 mph - N/A   Partly Cloudy
9:51 PM 48.0 °F - 33.1 °F 56% 30.24 in 10.0 mi NE 8.1 mph - N/A   Clear
10:51 PM 46.0 °F 41.9 °F 34.0 °F 63% 30.23 in 10.0 mi NE 8.1 mph - N/A   Clear
11:51 PM 46.0 °F 42.5 °F 34.0 °F 63% 30.23 in 10.0 mi NNE 6.9 mph - N/A   Clear